{"data":{"norad_id":66309,"epoch":"2026-05-25T00:10:44.289120Z","epoch_age_seconds":71621,"freshness":"FRESH","line1":"1 66309U 25248S   26145.00745705  .00004018  00000+0  19443-3 0  9997","line2":"2 66309  45.4034 246.0318 0004593 282.6055  77.4318 15.20279752 30989","mean_motion":15.20279752,"eccentricity":0.0004593,"inclination_deg":45.4034,"raan_deg":246.0318,"arg_perigee_deg":282.6055,"mean_anomaly_deg":77.4318,"bstar":0.00019443,"rev_number":3098,"period_min":94.719409247253,"perigee_km":501.83466826258,"apogee_km":508.15751432024,"semimajor_km":6883.1330912914,"source":"CELESTRAK","updated_at":"2026-05-25T13:38:06.132794Z"}}